Theta_e
288 288 287 288 288 288 288 288 288 288 288 288 288 287 287 287 287 286 286 286 285 285 284 283 283 282 282 281 281 281 282 282 282 282 282 282 282 281 281 281 281 280 280 280 280 279 279 279 279 279 279 279 279 279 280 280 280 280 281 281 282 283 283 284 285 285 285 285 285 285 285 285 285 285 285 285 286 286 286 286 286 286 285 286 286
288 287 287 287 288 288 288 288 288 288 288 287 287 287 287 286 286 286 285 285 284 284 283 282 282 281 281 281 281 281 281 281 281 281 281 281 281 281 281 281 280 280 280 280 279 279 278 278 277 277 278 278 278 279 279 279 279 280 280 281 281 282 282 283 284 284 285 285 285 285 284 284 284 284 285 285 285 285 286 286 286 286 285 285 286
287 287 287 287 287 287 287 287 288 287 287 287 287 286 286 286 285 285 285 284 283 283 282 282 281 281 281 281 281 281 281 281 281 281 281 280 280 280 280 280 280 280 280 280 279 279 278 278 277 277 277 277 277 278 278 278 279 279 280 280 281 281 281 282 282 283 284 284 284 284 284 284 284 284 284 284 284 285 285 285 285 285 285 285 285
287 287 287 287 287 287 287 287 287 287 286 286 286 286 285 285 284 284 283 283 282 282 281 281 281 280 280 280 280 280 280 280 280 280 279 279 279 279 279 279 279 279 278 278 278 277 277 277 276 276 276 276 276 276 277 277 278 278 279 279 280 280 280 281 281 282 282 283 283 283 283 284 284 284 284 284 284 284 284 284 285 285 285 285 285
287 287 288 288 287 287 287 286 286 286 286 286 286 285 284 284 283 283 282 282 281 281 281 280 280 280 280 280 280 280 280 279 279 279 278 278 278 278 278 278 277 277 277 276 276 275 275 275 275 275 274 275 275 275 276 276 276 277 277 278 279 279 280 280 280 281 281 282 282 282 283 283 283 283 283 284 284 284 284 284 284 285 285 285 286
288 288 288 288 288 287 286 286 286 286 286 286 285 285 284 283 283 282 281 281 281 280 280 280 280 280 279 279 279 279 279 279 278 278 278 278 277 277 277 276 276 276 275 275 275 274 274 274 274 274 274 274 274 274 275 275 275 276 276 277 278 278 279 279 280 280 281 281 281 282 282 282 282 283 283 283 284 284 284 284 285 285 285 285 285
288 288 288 288 287 286 286 286 286 286 286 285 285 284 284 283 282 281 281 280 280 280 279 279 279 279 279 279 278 278 278 278 277 277 277 277 276 276 276 275 275 274 274 274 274 273 273 273 273 273 273 273 274 274 274 275 275 276 276 277 277 278 278 279 279 280 280 281 281 281 282 282 282 282 283 283 283 283 284 284 284 285 285 285 285
288 288 287 287 286 286 286 286 286 286 285 285 285 284 284 283 282 281 281 280 279 279 279 279 279 278 278 278 278 277 277 277 277 276 276 275 275 274 274 274 274 273 273 273 273 272 272 272 272 272 273 273 273 274 274 275 275 275 276 276 276 277 277 278 278 279 279 280 280 280 281 281 282 282 282 283 283 283 283 284 284 284 285 285 285
287 287 286 286 286 286 286 286 285 285 285 284 284 284 283 282 281 281 280 279 279 278 278 278 278 278 278 278 277 277 277 276 276 276 275 274 273 273 273 272 272 272 272 272 272 272 272 272 272 272 272 272 273 273 273 274 274 275 275 275 276 276 276 277 277 278 278 279 279 280 280 281 281 282 282 282 282 283 283 283 283 284 284 284 285
287 286 286 286 286 286 285 285 285 285 284 283 283 283 282 281 280 279 279 278 278 278 278 278 277 277 277 277 277 276 276 276 276 275 274 273 272 272 272 272 272 272 272 272 271 271 271 271 271 271 271 271 271 271 272 272 273 273 274 274 274 275 275 275 276 277 277 278 279 279 280 280 281 281 281 282 282 282 282 283 283 283 284 284 284
287 286 286 286 285 285 285 284 284 283 283 282 282 282 281 280 279 278 278 277 277 277 277 277 277 277 277 276 276 276 275 275 275 274 273 273 272 271 272 272 272 272 271 271 271 271 271 271 270 270 270 270 270 270 271 271 272 272 273 273 274 274 274 275 275 275 276 277 277 278 278 279 279 280 280 281 282 282 283 283 283 284 284 284 284
287 286 285 285 284 284 284 283 283 282 281 281 281 281 280 279 278 277 277 277 277 276 276 276 276 276 276 275 275 275 275 275 274 273 273 272 271 271 272 272 271 271 271 271 271 270 270 270 269 269 269 269 270 270 270 271 271 271 272 272 273 273 274 274 275 275 276 276 277 277 277 278 278 278 279 279 280 280 281 281 282 282 283 283 283
286 285 284 283 283 283 283 283 282 281 280 280 280 280 279 278 277 277 277 276 276 276 276 276 275 275 275 274 274 274 274 274 273 273 272 270 270 271 272 271 271 271 270 270 270 269 269 269 269 269 269 269 269 269 270 270 270 270 271 271 272 272 273 273 274 274 275 275 275 276 276 276 277 277 278 278 278 279 279 279 279 280 280 281 281
285 284 283 282 282 282 282 282 281 280 280 280 280 279 278 277 277 276 276 276 276 275 275 275 275 274 274 274 273 273 273 273 273 272 271 269 269 271 271 270 270 270 269 269 268 268 268 268 268 268 268 269 269 269 269 269 270 270 271 271 271 272 272 272 273 273 274 274 274 275 275 275 276 276 276 277 277 278 278 279 279 280 280 280 280
283 283 282 282 282 282 282 281 281 280 280 280 279 278 278 277 276 276 275 275 275 275 274 274 274 273 273 273 273 273 273 273 272 271 269 268 269 270 270 269 269 268 268 268 268 268 268 268 268 268 268 268 269 269 270 270 271 271 271 271 272 272 272 273 273 273 274 274 274 275 275 275 276 276 276 277 277 278 278 279 279 280 280 280 281
283 282 281 282 282 282 282 281 280 280 280 279 279 278 277 276 276 275 275 275 274 274 274 274 273 273 272 272 272 272 273 272 271 270 268 268 268 269 268 268 268 268 268 268 268 268 268 268 268 268 268 269 269 270 271 271 272 272 272 273 273 273 273 273 274 274 274 274 274 275 275 275 276 276 277 277 277 278 278 278 279 280 280 281 281
282 282 281 282 282 282 281 280 280 280 279 279 278 277 276 275 275 274 274 274 274 274 273 273 273 272 272 272 271 272 272 272 271 269 268 268 268 268 268 268 268 268 268 268 268 268 268 268 268 269 269 269 270 271 272 273 273 273 274 274 274 274 274 274 274 274 274 274 274 275 275 275 276 276 276 277 277 277 277 277 278 278 279 279 280
282 281 281 281 281 281 280 280 279 279 279 278 277 276 275 275 274 274 274 273 273 273 273 272 272 272 271 271 271 271 272 272 270 269 268 268 267 268 268 268 268 268 268 268 269 269 269 269 269 270 270 270 271 272 273 274 274 274 274 274 274 274 274 274 274 274 274 274 275 275 275 275 276 276 276 276 276 277 277 277 277 277 277 277 278
282 281 281 281 281 280 280 279 279 278 278 277 276 275 274 274 273 273 273 272 272 272 272 272 272 271 271 271 270 271 272 272 270 269 268 267 267 268 268 268 268 268 268 269 269 269 269 270 270 270 271 271 272 273 274 274 274 274 274 275 275 275 275 275 275 275 274 275 275 275 275 275 275 276 276 276 276 276 276 276 276 276 276 276 277
281 281 280 280 280 280 279 279 278 277 276 275 274 274 274 273 273 272 272 272 272 271 271 271 271 271 270 270 271 271 271 271 269 268 267 267 267 268 268 268 268 268 269 269 269 269 270 270 271 271 271 272 273 274 274 274 275 275 275 275 275 275 275 275 275 275 275 275 275 275 275 275 275 275 275 275 275 275 275 275 275 275 275 275 276
280 280 280 280 280 279 278 278 277 276 275 274 273 273 273 272 272 272 271 271 271 271 271 271 271 271 270 270 270 270 269 269 268 267 266 267 268 268 269 269 269 269 269 270 270 270 271 271 271 271 272 273 273 274 274 275 275 275 275 275 275 275 276 276 276 276 275 275 275 274 274 274 274 274 274 274 274 274 274 274 274 274 274 275 275
280 280 280 280 279 278 277 276 276 274 273 273 272 272 272 272 271 271 271 271 270 270 270 270 270 270 270 270 270 269 268 267 266 266 266 266 268 269 269 270 270 270 271 271 271 271 272 272 272 272 272 273 274 274 274 275 275 275 275 275 276 276 276 276 276 275 275 274 274 274 274 274 274 273 273 273 273 273 273 273 274 274 274 274 274
280 279 279 279 278 277 276 275 274 273 272 272 271 271 271 271 271 270 270 270 270 269 269 269 268 269 269 269 269 268 267 266 266 266 266 267 268 269 270 270 271 271 271 272 272 272 272 272 272 272 273 274 274 274 275 275 275 275 275 275 275 275 275 275 275 274 274 274 273 273 273 273 273 273 273 273 273 272 272 273 273 273 273 273 273
279 279 279 278 277 276 275 274 273 272 272 271 271 271 271 270 270 270 270 269 269 268 268 267 266 266 267 267 267 267 266 265 265 266 266 267 268 269 270 270 271 271 272 272 272 272 272 272 272 273 274 274 275 275 275 275 274 274 274 275 275 274 273 273 272 272 272 272 272 271 271 271 271 271 271 271 271 271 271 271 272 272 272 272 272
279 278 278 277 276 275 274 273 272 271 271 270 270 270 270 270 270 269 269 269 268 267 266 265 264 264 264 264 264 264 265 265 266 266 267 267 268 269 269 270 271 271 272 272 272 272 272 273 273 274 274 274 274 274 273 273 273 273 273 273 272 271 270 270 270 270 270 270 270 270 270 270 271 271 271 271 271 271 271 271 271 271 271 272 272
278 278 277 276 275 274 273 272 271 271 270 270 270 269 269 269 269 269 269 268 267 265 265 264 263 263 263 263 263 264 266 266 267 267 267 267 268 269 270 270 271 271 272 272 272 272 273 273 273 273 273 272 272 271 271 270 270 270 270 269 268 268 268 268 268 268 269 269 270 270 270 270 270 271 271 271 271 271 271 271 271 271 271 272 272
277 277 276 275 274 273 272 271 270 270 269 269 269 269 269 269 268 268 268 267 265 264 264 263 263 263 263 264 265 265 266 267 267 267 267 268 269 270 270 271 271 271 272 272 272 272 272 272 271 271 270 269 269 269 268 268 267 267 267 266 266 266 267 267 267 268 268 269 269 269 270 270 270 270 270 271 271 271 271 271 271 271 271 271 271
276 276 274 273 272 272 271 270 269 269 269 269 268 268 269 268 268 268 267 266 265 264 263 263 263 263 264 265 266 266 267 267 267 267 268 269 270 271 271 271 272 272 271 271 271 271 270 269 268 268 267 266 266 266 266 266 266 266 265 265 266 266 266 267 267 268 268 268 268 269 269 269 270 270 270 270 271 271 271 271 271 272 272 272 272
275 274 273 272 271 271 270 269 268 268 268 268 268 268 268 268 267 267 267 266 265 264 264 264 264 265 266 267 267 267 267 267 267 268 269 270 271 271 271 272 271 270 270 270 269 268 267 266 265 264 264 264 264 264 264 265 264 264 264 265 265 265 265 266 266 266 267 267 267 268 268 269 269 270 270 270 271 271 271 271 272 272 272 272 272
274 273 272 271 270 269 268 268 268 267 267 267 267 267 267 267 267 265 265 265 264 264 265 266 266 267 267 267 267 267 267 267 268 269 269 270 271 271 271 271 270 269 269 268 266 265 264 263 263 263 263 263 263 263 263 263 263 263 264 264 264 264 264 265 265 265 266 266 266 267 268 268 269 269 270 271 271 271 271 272 272 272 272 272 272
273 272 271 270 269 268 268 267 267 267 267 266 266 266 267 268 268 266 265 264 264 265 265 265 266 266 266 266 266 266 266 267 268 269 269 270 270 270 270 269 268 267 267 266 264 263 262 262 262 262 262 262 262 262 263 262 263 263 263 263 263 264 264 264 265 265 265 265 266 266 267 268 269 270 270 271 271 272 272 272 272 272 272 272 273
272 272 271 269 268 267 267 266 266 266 266 266 266 265 265 266 268 268 267 265 264 265 264 264 264 265 265 266 266 266 266 267 268 268 269 270 269 269 269 267 266 266 266 265 263 262 261 261 261 261 261 261 262 262 262 262 262 262 262 263 263 264 264 264 264 265 265 265 266 267 268 269 269 270 271 271 272 272 273 273 273 273 273 273 273
272 271 269 268 267 266 266 266 266 266 266 266 265 265 263 262 263 266 267 266 265 265 264 263 263 263 264 265 265 266 266 267 267 268 269 269 268 268 267 266 265 265 264 263 262 261 261 261 261 261 261 261 261 261 262 262 262 262 262 263 263 264 264 264 265 265 265 266 267 268 268 269 270 271 271 272 273 273 273 273 273 273 273 273 273
270 269 268 267 267 266 266 266 266 266 266 265 264 264 262 261 260 260 263 264 265 265 265 264 263 263 263 264 264 265 266 266 267 268 268 267 267 266 265 265 266 265 264 262 261 261 261 260 260 261 261 261 261 261 261 262 262 262 263 263 263 264 264 265 265 266 266 267 267 268 269 269 270 271 271 272 273 273 274 274 274 274 274 274 274
268 268 267 267 267 266 266 266 265 265 265 264 264 262 262 261 259 258 259 260 260 261 263 265 264 263 263 263 263 264 265 266 267 267 267 266 265 265 265 266 266 264 263 262 261 260 260 260 260 261 261 261 261 261 262 262 263 263 263 263 264 264 265 265 266 266 267 267 268 268 269 269 270 270 271 271 272 273 274 274 274 274 274 274 275
267 267 267 267 266 266 266 265 265 265 264 264 263 262 261 260 259 259 259 259 258 259 260 262 264 264 263 263 263 264 264 265 266 266 265 264 264 264 265 264 262 261 261 261 261 260 260 260 261 261 261 261 262 262 262 263 263 264 264 264 264 265 265 266 267 267 267 268 268 268 269 269 269 270 270 271 272 273 274 275 275 275 275 275 275
268 267 267 266 266 265 265 265 264 264 264 264 263 262 261 260 259 259 259 259 259 259 259 260 262 264 264 263 263 264 264 264 264 264 264 263 264 264 263 261 260 261 261 261 261 261 260 260 261 261 261 262 262 262 263 263 264 264 265 265 265 266 266 267 268 267 267 267 268 268 268 269 269 269 270 271 272 273 274 275 275 275 275 276 276
268 267 266 266 265 264 264 264 264 263 264 264 263 262 260 260 259 259 259 259 259 259 260 260 261 262 263 263 263 263 263 263 263 264 264 264 264 263 262 261 261 261 262 261 261 260 260 260 261 261 261 262 263 263 263 263 264 265 265 266 267 267 268 268 268 267 267 268 268 268 268 268 269 269 270 271 272 273 274 275 275 275 275 276 276
267 266 265 264 264 264 264 264 264 264 264 264 263 261 260 260 259 259 259 259 260 260 260 261 261 261 261 262 262 262 262 263 263 263 263 264 263 262 262 262 262 261 261 261 261 260 260 261 261 262 262 263 263 263 263 263 264 265 266 267 267 268 268 268 268 268 268 268 267 268 268 268 268 269 269 270 271 272 273 274 275 276 276 276 277
266 265 264 264 264 264 264 264 265 265 264 264 262 261 260 260 260 260 259 260 260 261 261 261 262 262 262 261 261 262 263 262 262 262 262 263 263 262 262 261 261 261 261 261 261 261 261 261 262 262 263 264 264 264 263 264 264 265 266 267 268 268 268 268 268 268 268 267 267 267 267 267 268 268 269 270 271 271 272 273 274 275 276 277 277
265 264 264 264 264 264 264 264 264 264 264 263 262 261 260 260 260 260 259 260 260 261 261 262 263 263 262 262 261 262 262 262 262 262 262 262 262 262 262 261 261 261 261 262 262 262 262 262 262 263 264 264 264 264 264 264 264 265 266 267 268 268 268 268 268 268 267 267 267 267 267 267 267 268 268 269 270 271 271 272 273 274 275 276 276
264 264 264 264 264 263 263 263 263 263 263 262 261 261 260 260 260 259 259 260 260 261 262 263 263 263 263 263 262 262 262 261 262 262 263 262 262 262 262 262 262 262 262 262 262 262 262 262 263 263 264 264 265 265 265 265 265 265 265 266 267 268 268 268 268 267 267 267 267 267 267 267 267 267 268 269 269 270 270 271 272 272 273 274 275
263 264 264 263 263 263 263 263 262 262 262 262 262 261 260 260 260 259 259 260 260 261 261 263 263 263 264 263 263 262 263 262 262 263 263 263 263 263 263 263 263 263 263 263 263 262 262 262 263 263 264 264 265 265 265 265 265 265 265 266 267 268 268 268 268 267 267 266 266 266 266 266 266 267 267 268 268 269 269 270 271 271 272 273 274
263 263 263 262 262 262 262 262 262 262 262 262 261 261 261 260 260 259 259 260 260 261 261 262 263 263 264 264 263 263 263 263 263 263 263 263 263 264 264 264 264 264 263 263 263 263 263 263 263 263 264 264 265 265 265 265 265 266 266 266 267 267 268 268 268 267 266 266 266 266 266 266 266 266 267 267 267 268 269 269 270 270 271 272 273
262 262 262 262 262 262 262 262 262 262 262 261 261 262 261 261 260 260 260 260 261 261 261 262 262 263 264 264 264 264 263 263 263 263 263 263 263 264 264 264 264 264 264 264 263 263 263 263 263 263 264 264 265 265 265 266 266 266 266 266 266 267 268 268 268 267 267 266 266 266 266 266 266 266 266 266 267 267 268 269 269 270 270 272 273
262 262 262 262 262 262 262 262 262 262 262 261 262 262 262 261 261 260 260 260 261 261 262 262 262 263 263 263 263 263 263 263 263 263 263 263 263 263 264 264 264 264 264 264 263 263 263 264 264 264 264 264 264 265 265 266 266 266 266 266 267 267 268 268 268 268 267 267 266 266 267 266 266 266 266 266 266 266 267 268 269 269 270 271 272
261 261 261 262 262 261 261 261 261 261 261 261 262 262 262 262 261 261 261 261 261 261 262 262 262 262 263 263 263 263 263 262 263 263 263 263 263 263 263 263 263 263 264 264 264 263 263 263 264 264 264 264 264 265 265 266 266 266 266 266 267 267 268 268 268 268 267 267 266 266 267 267 267 267 266 266 266 266 266 267 268 269 269 270 270
261 261 261 261 261 261 261 261 261 261 261 261 261 262 262 262 262 261 261 261 261 261 262 262 262 262 263 263 263 262 262 262 262 262 263 263 263 263 263 263 263 263 263 264 264 263 263 263 264 264 264 264 264 265 265 265 266 266 266 266 267 267 268 268 269 268 268 267 267 266 266 267 267 267 267 267 266 267 267 267 267 268 269 269 269
261 261 261 261 261 261 261 261 261 261 261 261 261 261 261 261 261 261 261 261 261 261 262 262 262 262 262 262 262 262 262 262 262 262 262 263 263 263 262 263 263 263 263 263 263 263 263 263 263 263 264 264 264 264 265 265 266 266 266 266 266 267 268 268 268 269 268 267 267 267 266 266 267 267 268 267 267 267 267 267 267 268 268 269 269
261 261 261 261 261 261 261 261 261 261 261 260 261 261 261 261 261 261 261 261 261 261 261 261 262 262 262 262 262 262 261 262 262 262 262 262 262 262 262 262 262 262 262 262 262 263 263 263 263 263 263 264 264 264 265 265 265 266 266 266 266 267 267 267 268 269 268 268 267 267 267 266 266 267 267 267 267 267 267 267 268 268 268 268 268
260 260 260 260 260 261 261 261 261 261 261 261 261 261 261 261 261 261 261 261 261 261 261 261 261 261 262 262 261 261 261 261 261 261 262 262 262 262 262 262 262 262 262 262 262 262 262 262 262 262 263 263 264 264 264 265 265 265 265 266 266 266 267 267 268 268 269 268 268 267 267 266 266 266 267 267 267 267 267 267 267 267 267 267 267
Wind_Speed
16 14 14 13 12 11 10 8 8 8 8 9 11 12 13 14 15 16 17 18 19 20 20 21 21 22 22 23 23 24 24 25 26 27 27 28 28 28 29 29 29 30 30 30 29 27 27 26 26 26 25 26 26 25 25 26 25 25 25 24 23 21 20 19 18 20 23 21 26 34 36 36 39 39 36 36 34 30 30 31 32 33 35 34 33
14 13 12 10 9 8 7 6 5 5 6 8 9 11 12 14 15 16 18 19 20 21 21 21 22 23 23 23 24 24 25 25 26 27 27 28 28 28 29 29 30 30 31 31 31 30 30 29 28 28 26 26 26 24 24 24 23 24 24 22 23 23 20 20 20 21 25 22 20 26 30 30 36 40 35 33 36 33 32 34 33 33 35 35 35
14 12 10 8 7 5 4 3 2 3 5 7 9 11 13 15 16 17 18 19 20 21 21 22 22 23 23 23 23 23 24 25 25 26 26 27 28 28 28 28 29 30 31 31 32 31 32 32 32 31 30 29 28 24 22 22 21 21 23 22 22 24 22 21 22 23 27 28 23 22 23 23 28 36 36 34 37 36 35 37 35 33 34 34 35
13 11 9 7 5 4 3 2 0 3 5 8 10 12 14 15 16 17 18 18 19 19 20 21 22 22 22 23 23 23 24 25 25 25 26 26 27 28 28 28 28 29 30 31 31 31 31 32 33 32 32 32 33 28 23 22 21 20 22 23 21 23 23 22 23 24 26 30 29 24 23 22 24 29 32 34 36 37 37 38 37 35 34 34 34
12 10 8 7 6 5 5 3 1 3 6 9 11 13 14 15 16 17 18 18 19 19 20 21 21 21 22 22 23 23 24 25 25 26 26 26 27 28 28 29 29 29 30 30 29 29 29 30 30 30 29 29 30 28 24 23 24 22 23 24 22 22 24 23 24 25 26 30 33 30 26 24 24 25 26 29 32 35 35 36 36 35 34 33 33
12 11 9 8 8 7 5 3 2 5 7 10 12 14 15 17 17 18 19 19 20 20 21 21 21 21 22 22 23 23 24 24 25 26 27 27 28 28 29 30 30 30 30 30 29 28 28 28 27 26 24 24 25 25 24 24 24 24 23 23 23 22 24 25 24 24 26 29 32 32 29 26 24 24 22 22 25 29 31 31 30 30 31 33 34
12 11 11 10 10 8 5 2 3 6 8 11 13 15 16 18 19 20 20 21 21 22 22 22 22 22 22 22 23 23 24 24 25 26 27 27 28 29 30 30 30 30 30 30 28 27 26 26 25 23 20 20 22 22 23 23 22 22 22 22 23 23 24 25 24 24 25 27 29 31 30 27 26 25 23 22 22 25 27 27 27 27 28 29 32
12 12 12 12 10 7 4 2 4 6 9 11 13 15 17 19 20 20 21 21 22 22 22 22 22 22 22 23 23 24 24 25 25 26 27 27 28 28 29 29 30 30 29 27 24 22 21 21 20 19 19 19 20 20 21 22 23 23 23 21 22 23 24 24 24 24 24 26 27 29 30 29 27 25 23 22 22 22 22 22 25 28 28 26 27
13 13 13 12 9 6 4 3 5 7 9 10 12 15 17 18 19 20 20 21 21 21 21 21 21 22 22 23 24 24 25 25 25 26 26 26 26 26 27 27 27 26 25 23 21 18 17 16 16 17 18 19 20 21 22 22 23 24 24 22 22 23 24 24 24 24 24 25 27 28 28 28 26 24 21 20 21 22 22 22 24 28 29 28 28
14 14 13 11 9 6 5 5 6 7 9 10 12 14 16 18 18 19 20 20 20 20 20 20 21 22 23 23 24 25 25 26 25 25 23 23 23 24 24 23 21 20 20 20 19 17 16 16 16 17 19 20 20 21 22 22 22 23 23 23 23 23 24 24 24 24 24 25 26 26 26 27 26 24 23 23 23 23 24 24 24 27 28 26 27
15 14 13 10 8 6 5 6 7 8 9 11 12 14 16 17 18 19 19 19 20 20 20 21 21 22 23 24 25 25 26 25 25 25 23 21 20 20 20 20 18 18 18 19 19 18 17 16 16 17 18 19 20 20 21 21 22 22 23 23 23 23 24 24 25 24 24 25 27 27 26 28 29 27 26 25 24 22 22 22 21 22 23 20 21
16 14 12 10 8 6 6 7 8 9 10 11 13 15 17 18 18 19 19 19 19 20 20 21 22 23 24 25 25 26 26 26 25 24 23 20 18 18 18 18 18 18 18 18 19 18 17 17 17 17 18 19 20 21 21 21 21 22 22 22 22 22 22 23 25 25 24 24 26 27 27 28 30 29 27 25 25 24 25 25 23 23 23 22 21
16 14 12 10 8 7 7 8 8 9 11 12 14 16 17 18 18 19 19 19 20 20 21 22 23 23 24 25 26 27 27 26 25 23 22 19 17 17 18 18 18 18 18 18 18 17 17 18 18 18 19 19 20 21 21 21 22 22 22 22 22 22 22 23 24 25 26 25 26 29 28 27 28 29 27 26 27 28 28 28 28 27 28 28 28
16 14 12 10 8 8 8 8 9 11 12 14 16 17 18 19 19 19 20 20 20 21 22 23 24 24 25 26 27 28 27 26 25 23 21 19 17 18 18 18 18 18 17 17 17 16 16 18 19 20 20 20 20 21 21 22 22 22 22 22 23 23 24 26 27 26 26 26 27 30 29 27 29 31 30 27 28 30 29 29 29 28 29 31 33
16 14 12 11 9 8 9 10 10 12 13 15 17 18 18 19 19 19 20 20 21 22 23 24 25 25 26 26 27 28 27 25 24 23 20 18 18 18 17 17 16 16 17 17 16 16 16 17 19 21 21 21 21 22 23 24 24 25 26 28 27 26 26 28 29 27 26 26 27 29 29 28 29 31 30 28 28 29 30 31 32 32 32 33 33
16 14 13 11 10 9 10 11 12 13 14 16 17 18 18 18 18 19 20 21 22 23 23 24 25 26 26 26 27 28 27 25 24 23 20 18 18 17 16 16 16 17 17 16 16 15 16 17 19 21 22 24 26 26 25 25 26 28 30 30 29 27 25 25 25 25 26 28 29 30 30 30 30 31 32 31 30 31 32 32 30 29 29 29 29
17 16 14 12 10 10 11 12 13 14 15 17 18 18 18 18 18 19 20 22 23 23 24 25 26 26 27 26 27 28 28 25 24 23 20 18 18 17 16 16 17 17 18 18 17 16 16 17 20 23 25 27 29 28 26 26 28 29 28 29 30 29 27 27 30 31 31 31 30 31 31 31 31 31 31 31 30 31 31 29 25 23 23 20 18
19 17 15 12 11 12 12 13 14 15 16 17 18 18 18 18 19 19 20 22 23 24 25 26 27 26 26 26 25 27 28 26 24 23 21 18 17 18 18 18 18 19 20 20 18 16 17 20 23 27 29 28 28 28 27 28 29 28 29 31 31 29 28 30 32 33 33 32 32 33 34 33 33 32 31 30 28 26 26 26 23 23 24 20 17
20 17 15 13 12 12 13 13 14 15 16 17 17 17 18 18 18 19 20 22 24 24 25 27 28 27 26 26 25 25 27 26 23 22 20 17 18 19 18 19 21 21 20 20 19 20 23 26 26 27 29 30 29 29 29 29 30 29 30 31 27 25 29 31 29 30 34 35 35 35 34 32 30 30 28 27 25 24 25 26 26 25 26 25 23
19 16 14 13 12 12 13 14 15 16 16 17 16 17 17 17 18 19 21 22 23 25 25 27 28 28 26 25 24 23 24 25 23 21 19 18 18 19 19 21 22 22 22 23 26 29 30 29 29 28 29 29 29 30 30 30 30 32 32 29 26 26 32 34 31 30 31 30 29 29 27 26 26 27 26 26 26 26 27 28 28 28 27 27 27
18 16 14 13 12 13 14 14 15 15 15 16 16 16 16 17 18 19 21 22 24 25 26 26 28 28 26 25 24 22 22 23 23 22 20 19 19 19 20 22 23 24 27 27 28 29 27 27 28 28 27 28 29 31 32 31 33 34 32 28 28 30 33 32 29 27 27 27 28 29 28 29 30 30 30 30 29 28 28 27 27 27 27 27 27
19 17 15 13 13 14 14 14 15 15 15 16 16 16 16 16 18 19 21 22 23 25 26 26 27 28 27 25 23 22 21 22 22 23 22 20 20 19 20 22 23 25 27 26 25 26 24 24 25 26 27 30 31 33 34 34 34 33 28 27 29 31 32 30 26 25 27 28 28 28 28 28 29 30 30 30 29 28 28 28 28 27 28 29 29
19 16 15 14 14 14 14 14 15 14 15 15 16 16 16 16 17 18 20 22 23 24 25 25 26 27 27 25 24 23 23 22 23 24 23 21 20 21 22 23 23 24 24 25 25 25 25 25 27 29 30 32 34 35 35 33 29 26 26 28 30 30 29 26 24 24 26 26 25 26 26 26 27 28 28 29 29 28 29 29 30 30 30 31 32
19 17 15 15 14 14 14 14 14 14 14 15 16 16 16 17 17 18 19 20 22 24 24 23 24 25 27 27 25 24 24 24 24 24 23 21 21 22 23 24 24 24 24 25 25 25 26 28 30 31 32 33 34 33 32 29 26 26 28 30 30 30 29 27 25 25 25 25 24 25 26 27 28 28 29 29 29 29 30 31 32 33 33 34 35
19 17 16 15 15 15 15 14 14 14 14 14 15 15 16 17 17 18 18 19 21 22 23 22 22 23 24 25 24 23 23 24 24 24 22 20 21 23 24 24 24 23 24 26 26 26 28 30 31 30 29 28 26 26 26 26 27 29 30 30 30 30 28 26 24 23 23 23 23 24 26 27 27 27 28 29 28 28 29 30 30 31 31 33 35
19 18 16 16 16 15 15 14 13 13 13 14 15 15 15 16 17 18 18 19 20 20 21 21 20 21 21 21 22 25 26 27 26 24 21 22 24 25 25 24 23 23 25 26 26 27 27 27 25 24 22 22 24 25 26 27 28 28 28 26 26 26 24 21 21 21 21 22 23 24 26 26 26 27 28 27 27 27 26 27 28 29 29 29 31
20 18 17 16 16 16 15 14 13 13 13 13 14 14 14 15 17 18 18 18 19 19 19 19 19 19 21 22 23 26 27 26 23 21 22 25 28 27 26 25 25 25 25 25 25 25 24 23 23 23 24 27 29 28 26 26 25 25 24 23 22 21 20 19 20 20 21 22 23 25 27 28 28 29 29 28 28 29 27 27 29 29 28 29 30
20 18 17 16 16 15 14 13 13 12 12 13 14 14 13 14 16 17 17 17 18 18 18 17 18 19 21 24 25 24 24 22 20 21 24 27 28 26 26 26 26 24 24 25 25 24 24 25 26 26 26 25 23 22 21 20 20 20 22 22 21 20 20 19 19 19 20 21 23 25 27 27 28 28 28 27 29 29 28 28 29 29 27 26 26
20 18 17 16 15 14 13 13 12 12 12 13 13 13 13 14 16 18 17 16 16 18 18 19 20 21 22 22 21 21 21 21 21 22 23 24 24 24 24 24 24 23 23 24 24 23 24 25 24 21 19 18 18 17 17 17 18 19 20 20 20 20 20 19 19 20 21 22 23 24 25 26 27 27 27 27 28 28 27 26 26 26 24 24 24
20 18 17 16 14 13 13 12 12 12 12 13 13 13 12 12 14 17 17 15 14 15 18 20 20 20 19 19 18 18 19 21 21 21 22 22 22 22 21 21 21 21 21 21 20 19 20 21 19 17 16 16 16 16 16 17 18 19 20 22 22 21 20 20 20 21 22 23 24 25 26 26 26 26 25 25 27 27 26 27 28 27 25 24 25
20 19 17 15 13 12 12 11 11 11 12 12 13 14 14 13 12 13 14 12 11 12 14 15 15 14 15 16 16 16 17 17 18 19 20 20 20 20 20 19 19 18 17 17 18 18 18 17 18 17 17 17 16 16 17 19 19 20 22 24 26 23 21 22 24 24 24 25 25 25 25 25 25 25 25 25 25 24 24 26 28 27 25 23 23
20 18 16 14 12 12 11 11 10 11 11 11 12 14 15 15 14 13 12 11 10 9 9 10 11 11 12 13 14 15 15 15 16 17 17 18 18 18 18 18 18 16 15 16 18 19 17 17 18 19 19 19 20 20 20 21 22 23 23 24 26 27 27 28 29 28 28 27 26 25 25 25 26 26 26 26 24 22 20 20 21 21 22 22 23
18 16 14 13 12 11 11 10 10 10 11 11 12 12 13 14 15 15 15 14 11 7 6 7 8 10 12 12 11 12 13 14 15 16 16 17 16 17 18 18 16 14 15 17 19 20 19 19 19 19 20 21 22 23 24 24 24 25 25 24 26 29 30 30 29 29 30 29 26 25 26 26 27 27 27 27 24 20 17 17 18 19 20 21 22
17 15 14 13 12 11 10 10 11 11 11 11 11 11 11 11 12 14 17 18 17 13 8 5 5 7 9 10 10 11 12 13 14 14 15 16 16 16 18 17 14 14 16 18 19 20 21 21 21 21 22 23 24 24 25 26 26 26 27 27 28 29 29 28 27 28 30 30 27 25 25 26 26 26 27 27 26 21 17 15 17 18 18 19 21
16 15 13 12 12 11 11 11 11 11 11 10 10 10 10 10 10 12 15 17 20 20 15 8 5 6 7 8 8 9 11 12 13 13 13 14 15 16 17 16 17 18 19 19 18 19 20 20 22 23 23 24 25 25 25 27 28 28 28 28 29 30 29 28 28 29 29 28 25 24 25 26 26 26 27 27 27 23 18 16 17 18 19 20 21
16 15 14 13 12 11 11 12 12 11 11 10 9 9 9 10 11 13 14 15 16 18 17 13 10 7 6 6 6 6 8 10 12 13 12 12 12 14 15 17 19 20 21 20 20 20 20 20 21 23 24 24 25 26 26 27 28 29 29 28 28 28 27 27 27 27 27 26 25 25 25 26 26 27 27 26 26 25 20 18 18 20 21 21 21
16 15 14 13 13 12 12 12 11 11 10 10 9 9 10 11 12 13 13 13 14 16 16 15 13 10 7 7 7 8 9 8 10 12 11 9 10 12 14 15 17 19 20 21 21 21 22 21 22 23 24 24 25 26 27 27 28 29 29 28 25 25 25 25 25 25 26 26 25 25 25 26 26 26 26 25 26 25 22 19 19 20 22 23 22
16 15 14 14 13 12 12 11 11 11 10 10 9 9 11 12 12 11 11 12 13 14 15 14 14 12 10 9 9 11 13 12 12 13 11 10 11 13 14 15 16 18 19 20 20 21 22 22 22 23 23 24 26 26 25 26 28 29 28 27 25 24 24 25 26 28 26 24 24 25 26 26 26 26 26 25 25 25 23 21 18 18 21 22 21
17 16 15 14 13 13 12 12 12 12 11 10 10 10 12 12 11 10 10 11 11 12 13 14 13 12 11 10 10 13 16 17 17 16 14 12 13 14 14 15 17 17 18 19 19 20 22 22 23 23 23 24 25 26 25 26 29 29 29 28 26 26 26 27 30 31 28 24 24 25 26 26 26 26 25 24 24 24 24 23 20 17 18 19 19
18 16 16 15 14 13 13 13 12 11 10 10 10 11 12 12 11 10 9 10 11 11 12 13 12 11 10 9 10 13 15 17 17 15 14 14 14 14 14 15 16 17 18 19 19 20 21 22 22 23 23 23 25 26 26 28 29 29 30 30 28 27 27 29 30 30 29 27 26 26 26 26 27 26 24 23 24 24 24 24 22 19 17 17 18
17 16 16 15 14 14 14 14 13 11 11 11 11 12 12 11 10 10 10 10 11 11 11 12 12 10 9 8 9 10 12 15 14 13 13 13 14 14 14 15 16 16 17 18 19 19 21 21 21 21 21 22 24 25 26 27 28 29 30 31 30 28 28 28 29 31 30 29 28 28 28 27 25 24 24 24 24 24 23 23 22 21 19 18 18
17 17 16 15 15 15 15 14 13 11 11 11 12 12 12 11 10 11 11 11 10 11 11 12 11 9 8 8 8 9 10 12 12 12 13 13 14 14 15 15 16 16 16 17 17 18 19 20 20 19 20 21 23 24 25 26 28 29 30 30 31 30 28 28 30 31 30 29 29 31 32 29 26 24 23 23 23 23 23 22 22 21 20 19 19
17 16 16 15 15 15 14 13 12 11 11 11 11 11 11 11 11 12 12 12 11 11 12 11 11 9 8 8 8 9 11 11 12 12 13 14 14 15 15 15 16 16 16 15 15 16 17 19 19 18 18 18 20 22 23 24 26 28 28 29 30 29 28 28 30 32 32 32 32 33 33 32 28 24 23 24 23 23 23 23 22 21 20 19 19
17 16 16 15 15 14 13 12 11 11 10 10 11 11 10 11 12 13 13 13 13 12 12 11 10 10 9 9 9 10 11 12 12 13 14 14 14 15 15 16 16 16 16 16 15 15 16 17 18 18 17 16 17 18 20 20 22 24 26 27 28 28 27 27 29 32 33 33 33 34 33 32 30 27 25 25 26 25 24 24 22 21 21 20 18
17 16 16 15 14 13 12 11 11 10 9 10 11 11 10 11 13 14 14 15 14 13 12 11 10 10 10 10 11 12 12 13 13 14 14 14 15 15 15 16 16 17 16 16 16 15 15 16 17 18 17 16 16 16 17 18 19 21 23 25 26 27 27 27 28 31 33 33 34 34 33 32 30 28 26 27 27 24 23 24 24 23 22 20 17
16 15 15 14 13 12 12 11 10 10 10 11 11 11 10 12 13 14 15 15 15 14 13 12 10 10 11 11 12 13 13 14 14 14 14 15 15 15 16 16 16 17 17 17 16 16 15 15 15 17 18 17 16 16 17 18 18 19 21 22 23 25 28 28 28 30 33 33 33 33 33 31 30 28 26 26 26 24 23 24 24 22 21 20 17
15 14 14 13 12 12 11 10 10 10 11 11 11 11 11 12 13 14 15 15 15 15 14 13 11 11 11 12 13 14 14 14 15 15 15 16 16 16 17 17 17 17 18 17 16 16 16 15 14 16 17 17 17 16 16 17 18 19 20 20 21 24 28 28 27 28 32 32 32 32 31 30 30 28 27 26 26 25 24 24 23 21 20 19 17
15 14 13 12 12 12 11 11 11 11 12 12 11 11 12 13 14 15 15 15 15 15 15 14 13 13 13 13 14 15 15 16 16 16 16 17 17 17 18 18 19 19 19 18 18 17 16 16 15 15 16 17 17 16 16 17 18 19 19 19 20 23 26 27 25 26 29 31 31 31 30 29 29 28 27 26 25 24 23 23 22 21 19 18 17
14 13 13 13 13 12 12 11 12 12 12 12 11 12 12 13 15 15 15 15 16 16 16 15 15 14 14 15 15 16 16 17 17 18 18 18 18 18 19 19 19 20 20 20 19 18 17 17 16 15 15 16 16 16 16 17 18 19 19 18 19 22 25 26 25 25 26 28 30 30 29 28 28 27 26 25 24 23 22 21 20 19 18 17 16
14 13 13 13 13 13 12 12 13 13 13 13 13 13 13 15 16 17 16 16 17 17 17 17 16 16 16 17 17 17 18 18 19 19 19 19 19 19 19 20 20 20 21 21 20 20 19 18 17 16 16 15 15 16 16 16 17 19 18 18 19 22 24 24 25 25 24 24 27 29 28 27 27 26 25 25 24 22 21 20 19 18 17 16 15
14 14 14 14 14 13 13 14 15 15 15 15 14 14 15 16 18 18 18 17 18 18 18 18 17 17 18 18 18 19 19 19 19 20 20 20 20 19 19 20 20 20 21 21 21 21 20 19 18 18 17 16 16 16 16 16 17 18 18 18 20 22 21 21 23 25 22 20 23 26 26 25 25 25 24 24 23 22 21 20 19 18 17 16 15
Wind_Direction
133 130 126 121 114 106 99 87 73 56 42 31 23 20 15 9 7 4 359 356 354 353 351 350 349 348 348 347 347 347 346 345 345 344 343 343 342 342 340 339 338 337 335 334 333 332 329 325 323 322 322 318 315 314 312 311 310 305 302 298 290 285 278 269 270 280 277 268 273 284 291 295 295 295 297 298 298 298 297 295 295 295 295 295 295
143 141 138 134 125 115 107 91 70 44 25 17 12 10 6 2 359 356 352 350 349 347 346 345 345 344 345 344 344 343 343 343 343 342 341 340 338 338 337 336 334 333 332 330 329 328 326 323 321 320 320 316 311 309 307 306 304 299 296 293 288 284 280 275 275 281 284 280 273 278 285 289 290 293 295 295 296 297 295 293 292 291 291 293 293
155 155 153 149 143 134 120 104 70 19 9 7 4 2 358 354 352 348 347 345 343 342 341 341 341 341 341 341 340 341 341 340 340 340 339 337 336 335 334 333 331 329 328 326 325 325 323 320 319 318 318 314 309 307 305 302 299 295 291 289 286 284 281 277 275 278 283 286 281 277 280 281 283 288 292 292 293 294 293 292 291 289 288 289 289
167 168 169 167 164 168 176 181 239 351 1 1 357 353 350 347 345 343 342 340 338 337 336 336 336 336 336 337 337 338 339 338 339 339 339 337 335 333 332 330 328 327 325 323 322 321 319 317 315 315 314 311 309 308 306 303 299 295 291 289 285 283 283 278 273 273 279 284 284 280 280 279 278 283 289 291 291 291 291 291 291 289 288 287 287
179 183 189 192 197 204 208 211 278 348 355 354 349 346 344 342 340 338 337 335 334 332 332 332 332 333 334 335 336 336 337 338 338 338 338 337 334 332 331 329 327 325 323 321 319 317 315 312 311 312 311 308 307 307 306 304 301 297 292 290 288 286 284 281 276 274 275 279 283 284 282 279 277 277 280 285 289 290 290 289 290 290 290 288 286
193 199 206 211 211 210 207 220 312 344 347 346 343 341 339 338 337 335 333 332 332 331 331 331 332 333 334 334 335 335 336 337 338 337 336 335 334 332 330 328 325 323 321 319 318 315 313 311 310 309 307 303 303 303 303 302 300 297 293 291 291 289 287 284 281 279 276 276 281 285 284 281 279 277 273 274 280 285 288 290 290 289 289 289 287
203 208 213 211 207 205 207 243 316 337 340 339 338 336 335 334 332 331 330 330 329 329 330 331 332 333 333 333 334 334 335 337 338 338 336 335 334 332 329 327 324 322 320 318 318 316 314 313 311 307 303 300 300 301 302 301 298 295 293 294 294 292 289 287 285 282 281 280 280 283 284 283 281 277 275 274 273 275 281 288 291 290 287 286 286
207 208 207 203 201 204 214 260 314 328 330 331 331 331 330 328 327 326 325 325 325 326 327 328 329 330 330 331 332 332 334 337 339 339 338 336 334 330 327 324 322 320 319 317 315 314 312 310 307 304 301 299 298 299 299 299 298 295 294 295 294 292 289 288 287 285 283 282 281 282 284 285 284 280 279 278 274 271 274 280 286 288 288 286 286
206 203 199 199 201 206 224 269 303 313 317 321 325 325 323 322 321 320 320 321 322 323 325 325 326 326 327 328 330 332 334 337 340 340 339 336 331 326 323 321 319 316 314 312 310 309 307 304 301 300 300 298 297 296 295 294 294 293 294 296 295 293 291 288 287 286 285 283 282 282 284 284 285 286 286 282 278 277 277 277 279 282 285 286 284
202 198 197 200 205 213 236 272 292 302 308 314 319 320 318 317 317 317 318 319 320 321 322 323 324 324 326 327 329 331 333 336 339 338 337 333 327 322 318 314 310 307 305 306 306 305 305 302 299 299 300 299 297 295 295 294 291 290 291 294 295 293 293 291 288 287 286 284 283 284 285 284 285 289 291 288 286 282 279 276 275 277 282 284 284
199 198 201 204 210 223 248 271 288 297 304 312 317 317 315 315 315 316 317 317 318 320 320 322 324 324 325 326 328 329 332 336 338 335 333 331 324 315 308 304 302 300 299 300 301 302 303 301 300 300 301 300 298 297 296 295 293 292 291 292 292 291 290 290 290 288 285 283 282 282 282 284 287 290 292 293 295 293 288 284 280 278 280 281 284
199 201 204 209 216 231 253 271 285 296 304 310 313 313 313 313 314 314 315 315 316 319 321 322 324 324 325 327 327 328 332 335 336 333 331 330 322 308 300 298 297 296 296 296 297 299 300 301 300 299 300 300 299 299 297 295 295 296 295 296 294 292 290 289 289 290 288 286 285 283 282 286 290 290 291 293 296 296 296 295 292 289 287 284 282
200 203 206 212 224 237 257 273 285 295 303 307 309 311 311 311 312 313 313 315 317 319 321 322 324 324 325 327 327 327 331 335 335 332 330 327 317 305 299 296 294 293 293 294 294 295 296 299 299 298 298 299 299 298 297 297 297 297 297 298 298 297 296 292 290 288 288 288 287 286 286 289 291 291 292 296 295 293 292 290 287 283 281 279 276
200 205 208 217 229 243 260 276 288 294 300 303 305 307 308 309 312 313 313 316 317 319 321 322 323 324 325 326 326 327 330 335 334 331 328 323 314 305 299 294 291 290 289 290 291 291 293 295 296 296 298 298 297 296 297 297 296 296 296 294 292 291 291 293 292 288 284 283 282 283 286 288 288 289 291 292 290 288 287 285 283 279 275 273 271
201 206 213 222 234 249 266 278 287 291 296 300 303 304 306 308 311 312 313 316 317 319 321 321 321 323 324 325 325 325 329 334 332 329 327 321 312 306 299 293 290 287 287 288 288 288 290 291 291 293 295 294 292 293 295 295 294 291 289 286 284 283 283 288 290 285 281 280 279 282 286 286 286 287 288 287 285 283 282 281 283 283 281 279 276
203 209 217 227 239 255 270 278 283 289 295 299 301 302 305 307 310 311 312 314 316 317 319 319 320 321 322 325 325 324 329 333 331 328 327 320 312 307 300 294 291 288 286 286 286 287 287 288 289 289 287 288 291 292 292 294 293 289 287 287 288 287 285 286 285 282 282 282 282 284 286 287 287 287 288 291 291 291 292 290 289 290 285 280 278
208 214 221 231 244 258 268 274 281 289 294 297 299 301 303 307 309 311 312 313 315 316 317 317 317 319 321 324 325 324 328 332 330 327 327 323 315 308 301 295 291 288 286 286 288 288 286 285 286 286 284 285 289 292 292 292 292 290 289 290 289 287 284 283 283 284 283 281 280 282 283 285 287 289 291 294 294 294 294 292 294 299 294 286 284
212 217 224 234 245 257 267 274 282 289 293 294 296 298 302 305 308 310 311 311 313 314 315 315 316 318 321 324 325 325 327 329 327 324 327 327 316 306 301 296 292 289 289 289 287 286 285 285 284 284 284 284 287 291 293 292 291 290 288 286 282 278 279 281 282 284 284 282 281 281 282 282 283 286 289 289 289 289 288 287 293 299 295 289 291
216 220 227 236 246 258 268 276 283 288 290 291 293 297 300 303 306 308 309 310 311 312 314 314 315 318 321 324 326 326 324 324 324 326 331 328 314 305 301 297 294 292 292 292 289 288 289 289 287 286 287 289 291 294 294 293 290 287 284 282 277 275 280 283 282 282 284 283 283 284 285 286 284 285 285 284 283 282 281 283 288 288 285 284 286
218 222 229 238 250 262 271 277 283 286 287 289 292 295 299 301 304 306 307 308 309 311 313 314 314 317 321 323 325 325 322 321 324 330 334 323 309 306 302 297 295 294 293 290 287 289 292 293 294 293 290 291 293 293 294 296 293 287 284 282 279 281 287 287 286 287 288 287 288 290 291 291 288 285 284 282 281 279 277 278 278 276 276 280 281
219 224 233 243 254 264 272 277 281 283 285 288 290 292 297 300 303 305 306 308 309 310 312 314 315 316 320 322 324 324 323 324 327 335 337 322 309 307 302 297 295 292 291 289 287 290 293 293 294 295 293 293 293 292 295 298 296 292 290 289 288 292 295 295 296 299 300 299 299 298 295 292 290 288 286 283 280 278 277 276 273 271 271 274 276
222 228 236 246 256 264 271 275 278 280 283 285 288 292 296 299 301 304 306 307 308 310 312 314 315 316 319 322 323 324 327 330 333 338 336 321 309 308 303 298 297 294 293 293 290 291 292 290 291 294 293 292 292 293 297 300 300 300 301 300 299 300 302 303 304 305 303 300 298 296 293 291 290 289 288 287 285 283 282 279 276 273 270 269 271
225 230 238 248 256 263 267 271 274 277 280 283 286 292 297 298 300 303 305 306 308 309 312 316 317 317 319 322 324 327 332 336 337 338 334 319 308 309 306 302 301 298 296 295 293 293 293 292 293 294 293 293 295 297 301 305 307 308 308 305 304 306 306 306 304 302 301 298 296 294 292 291 291 291 290 289 289 288 286 283 279 277 274 271 268
225 231 239 248 254 259 263 267 270 273 277 282 286 291 296 298 299 302 304 306 308 309 313 317 318 318 319 322 325 330 335 335 334 334 329 316 308 309 309 306 304 300 297 297 296 296 295 294 295 296 297 298 301 304 307 311 312 311 309 308 309 309 309 307 305 304 301 297 294 292 289 288 289 289 288 289 290 289 286 284 281 278 276 274 272
225 232 240 247 251 256 259 263 267 271 275 280 285 290 294 296 299 302 305 306 308 309 313 316 316 316 318 319 320 326 331 330 326 326 322 313 309 311 310 307 306 303 301 301 300 298 297 297 299 301 303 306 309 311 313 312 310 308 307 308 307 306 306 306 305 303 299 295 292 289 286 286 286 287 288 289 289 287 285 284 284 282 279 277 275
227 233 239 245 248 253 257 261 265 269 274 279 283 288 292 296 299 302 305 307 308 309 311 313 314 315 315 314 314 319 324 325 324 324 320 314 313 315 313 311 310 307 304 303 301 300 300 303 306 310 313 315 315 312 309 306 304 305 306 306 305 305 306 306 304 300 295 292 291 289 288 289 291 292 293 292 289 285 282 282 284 285 284 282 278
229 233 237 242 246 251 256 259 262 266 270 275 279 284 290 295 298 301 305 308 308 307 307 309 311 311 310 311 312 315 318 321 322 321 317 316 319 320 317 314 312 310 309 308 308 309 311 313 314 313 312 309 307 307 308 308 309 311 312 313 311 308 305 302 298 295 293 292 292 292 292 294 296 295 295 292 289 286 283 281 280 280 282 282 279
229 233 236 240 245 251 255 258 262 266 269 273 278 284 289 291 294 298 303 306 306 304 304 304 304 303 304 306 308 309 313 317 317 315 316 318 320 319 317 317 318 320 321 322 321 319 316 315 314 313 313 314 315 317 319 319 319 318 318 317 316 313 310 307 303 299 297 295 295 295 295 295 296 295 294 291 288 286 284 282 278 275 278 281 279
227 231 235 239 243 248 253 258 264 269 272 275 280 284 288 294 297 299 302 306 306 302 298 298 300 302 303 303 303 306 311 312 312 313 315 317 318 318 320 325 328 329 330 328 325 322 320 321 325 327 329 331 331 328 326 325 324 322 321 321 319 317 316 314 310 307 305 303 300 298 297 295 294 294 292 289 287 284 282 279 277 274 276 279 279
225 228 233 237 241 245 251 257 264 271 276 281 285 287 289 294 297 297 299 301 299 289 285 288 294 299 300 299 299 302 304 306 309 313 316 318 319 322 326 330 332 335 336 333 331 334 337 338 339 340 337 334 333 330 328 326 323 320 321 322 320 317 314 312 309 307 306 304 300 297 295 292 291 291 289 285 284 282 279 279 278 274 272 273 275
223 228 233 236 239 244 250 257 264 271 279 286 292 296 297 295 292 293 296 297 291 283 281 286 292 297 299 299 300 301 301 305 311 315 317 320 323 327 332 335 338 342 343 339 342 349 351 344 337 335 334 331 329 325 322 321 319 317 318 320 321 320 314 311 312 310 307 303 300 297 295 292 289 289 286 283 281 279 277 279 277 271 267 265 268
224 229 232 234 236 242 249 257 264 271 278 285 290 298 303 304 303 303 303 303 302 295 287 289 297 304 307 306 305 305 307 312 316 318 320 323 326 331 336 338 341 345 346 348 352 353 349 340 334 334 333 329 326 325 323 321 320 319 317 317 319 320 319 318 318 316 312 308 304 301 301 299 296 293 290 287 283 278 275 275 270 265 264 264 266
226 229 229 228 232 239 248 258 264 269 275 281 285 291 298 303 307 308 309 312 316 311 292 289 302 311 315 314 311 309 313 318 321 322 325 327 331 336 336 335 341 350 354 355 355 350 345 341 337 334 332 329 327 327 326 324 322 322 320 317 316 318 321 322 321 319 317 314 307 302 304 304 301 301 300 298 294 285 275 273 270 266 264 263 264
225 226 226 227 232 239 247 255 260 265 269 274 280 285 291 296 301 306 310 315 317 318 320 326 329 328 326 322 318 318 322 326 327 327 328 332 338 338 330 329 343 0 4 2 357 349 344 341 337 334 333 331 330 329 328 327 326 325 323 321 320 321 321 322 322 321 320 318 311 307 309 309 308 308 308 306 304 296 282 274 272 267 265 265 264
219 221 224 229 234 240 246 250 254 259 263 267 273 279 286 291 293 297 302 306 308 313 321 337 354 351 344 334 327 329 333 332 331 332 335 338 339 334 329 337 351 358 360 360 355 348 342 338 335 334 334 333 333 332 330 329 329 327 325 323 323 323 323 324 324 324 322 320 315 312 313 313 311 310 309 306 305 299 286 277 276 272 270 271 270
216 218 223 229 233 237 240 244 249 253 258 263 268 273 280 286 289 291 293 294 297 304 314 326 339 351 356 350 346 353 352 339 331 332 338 342 342 342 346 352 352 349 350 353 351 346 342 339 336 336 336 335 335 335 333 332 331 331 329 324 320 321 323 325 326 327 325 322 318 315 315 314 313 313 311 307 306 302 291 282 282 280 278 278 278
216 220 223 228 231 232 234 239 245 249 253 258 265 271 276 279 281 283 285 289 295 301 309 320 331 340 355 3 3 9 8 348 326 326 337 350 356 359 1 358 349 345 347 350 348 344 340 339 339 339 338 337 338 337 336 335 335 333 330 325 321 322 324 325 328 330 327 323 320 319 317 316 315 314 312 308 307 307 301 290 285 285 285 284 284
219 222 222 224 225 226 230 236 240 243 248 254 260 266 269 271 272 274 278 285 293 299 306 315 322 329 340 352 359 5 3 347 330 332 348 3 6 5 4 360 355 351 348 347 345 341 337 338 342 342 340 341 342 340 336 335 336 334 330 327 328 331 330 330 332 333 330 326 324 323 321 319 317 316 313 309 307 310 309 301 289 282 283 285 284
217 218 218 220 221 223 229 233 236 239 244 249 254 257 259 261 265 267 272 279 286 293 303 310 314 322 332 341 355 2 352 335 327 335 350 1 3 3 2 359 356 353 348 345 344 342 338 340 343 345 345 346 346 343 338 336 337 337 334 333 333 336 337 337 336 335 333 331 328 325 323 321 318 316 314 311 310 312 315 314 305 288 280 281 283
215 214 214 216 218 221 228 233 236 240 243 246 249 250 251 256 261 261 265 274 280 289 300 304 309 321 331 337 350 351 334 318 318 330 343 351 356 359 359 357 354 351 348 347 347 344 342 343 345 347 349 350 349 347 344 341 339 338 338 337 335 335 337 339 338 336 335 333 331 328 326 324 321 319 318 317 318 317 316 318 318 313 302 297 295
212 212 212 214 216 220 227 231 235 239 241 243 246 248 249 254 259 259 260 267 275 285 293 296 303 319 329 333 340 333 312 304 314 330 340 345 348 351 354 355 353 351 351 350 348 346 344 343 345 347 350 351 351 349 347 345 342 340 339 338 337 336 339 342 342 340 338 335 332 331 330 327 323 323 322 323 324 324 320 319 323 325 323 319 314
210 210 211 212 215 220 225 229 232 235 238 241 245 250 253 257 258 258 260 264 270 279 286 291 300 312 320 326 330 321 308 309 321 333 339 342 344 347 351 354 353 354 354 352 350 347 344 342 344 346 349 351 352 350 348 347 345 342 339 338 337 337 340 344 345 343 341 338 335 336 337 334 329 325 325 326 327 328 327 326 327 329 330 330 327
210 210 210 212 216 220 225 228 229 232 236 243 247 251 255 259 260 259 262 265 267 272 279 286 296 304 309 316 320 316 315 321 328 332 337 340 342 345 349 350 351 353 353 353 351 348 344 342 342 344 347 351 352 350 349 348 346 343 339 338 337 336 338 344 347 346 344 342 341 341 342 341 336 331 329 330 333 334 335 334 332 331 335 339 340
209 209 209 213 217 220 224 227 230 232 236 243 249 252 255 260 261 262 264 266 267 270 274 280 290 299 303 308 313 313 314 320 325 328 332 336 338 340 342 343 344 346 348 350 350 348 345 343 342 341 345 349 351 351 352 352 351 347 341 337 335 334 336 341 346 348 347 345 344 344 344 345 344 340 336 337 340 342 342 341 339 337 339 344 348
209 209 212 216 218 221 225 228 231 235 238 243 248 254 257 261 263 264 266 268 269 269 271 276 284 291 296 301 306 308 309 313 318 322 325 328 331 333 335 335 337 339 341 344 346 345 344 344 342 340 341 344 346 350 352 353 353 352 347 341 336 333 334 339 344 348 349 349 348 348 347 346 346 345 343 341 342 342 344 347 349 348 348 350 354
211 212 216 219 220 223 227 229 231 236 241 246 251 256 260 262 264 265 266 268 269 270 272 276 280 285 291 296 299 301 304 307 310 314 318 321 323 326 327 328 330 332 334 337 340 341 341 341 341 340 340 339 340 344 348 349 350 351 351 348 342 337 337 340 344 347 350 352 352 351 350 349 349 349 349 348 348 346 347 352 356 359 0 3 7
216 218 220 223 225 227 230 231 233 238 243 247 253 258 261 263 265 265 265 267 270 271 273 277 281 284 288 292 293 295 299 303 305 309 313 315 317 320 321 322 324 325 327 330 333 334 335 335 335 336 337 338 337 339 343 346 346 347 348 350 347 342 341 342 344 346 349 351 353 354 353 353 352 353 354 355 355 354 353 355 360 5 11 15 19
220 222 223 226 230 232 234 235 237 241 245 249 255 261 264 266 268 268 268 270 272 274 276 279 281 284 287 289 291 294 297 299 302 306 308 310 313 315 316 317 319 320 321 324 327 328 329 330 329 328 331 335 336 336 337 340 342 345 346 345 344 345 344 343 342 344 347 351 355 356 356 356 356 356 357 358 359 360 360 0 3 9 16 21 23
224 226 227 231 235 237 240 243 245 248 251 254 257 260 264 268 269 270 271 273 275 276 277 279 281 284 286 287 289 292 294 296 299 303 305 307 310 311 312 313 315 316 317 319 321 322 323 324 323 322 324 328 331 333 333 332 336 342 343 340 340 344 344 341 339 340 344 350 355 357 358 358 359 359 360 0 1 2 4 6 7 10 15 18 19
229 231 233 237 241 243 246 248 250 252 254 257 260 263 267 269 271 272 273 275 276 277 279 281 283 285 286 287 289 292 294 296 298 301 303 306 307 308 310 311 312 313 314 315 316 318 319 320 320 319 318 320 323 327 327 326 328 334 336 335 337 339 338 335 335 336 338 345 353 357 358 360 1 1 2 4 4 5 7 9 11 13 15 16 17
237 238 240 243 247 248 249 251 253 255 257 259 263 266 270 272 273 275 276 276 278 280 282 283 285 285 286 288 290 291 292 295 297 300 302 304 305 307 309 309 310 312 313 313 314 315 315 317 317 317 316 316 316 319 322 322 322 324 326 328 331 333 332 333 336 337 334 338 348 354 357 360 2 4 5 7 7 8 9 11 14 16 18 19 21